Terminal Aerodrome Forecast
Issued by NWS

Home | Current Version | Previous Version | Text Only | Print | Product List | Glossary On
Versions: 1 2 3 4 5 6 7 8 9 10 11 12 13 14 15 16 17 18 19 20
000
FTUS45 KBOI 231128
TAFMYL
TAF
KMYL 231128Z 2312/2412 33008KT P6SM OVC070
     FM231800 33013G20KT P6SM VCSH OVC050
     FM240100 35006KT P6SM SCT035 BKN080=

USA.gov is the U.S. government's official web portal to all federal, state and local government web resources and services.